Regional Weather Roundup
Issued by NWS

Home | Current Version | Previous Version | Graphics & Text | Print | Product List | Glossary On
Versions: 1 2 3 4 5 6 7 8 9 10 11 12 13 14 15 16 17 18 19 20 21 22 23 24 25 26 27 28 29 30 31 32 33 34 35 36 37 38 39 40 41 42 43 44 45 46 47 48 49 50
000
ASUS43 KDMX 191507
RWRIA

WEATHER ROUNDUP FOR IOWA
NATIONAL WEATHER SERVICE DES MOINES IA
1000 AM CDT TUE AUG 19 2014

NOTE: "FAIR" INDICATES FEW OR NO CLOUDS BELOW 12,000 FEET WITH NO
SIGNIFICANT WEATHER AND/OR OBSTRUCTIONS TO VISIBILITY.

* - THESE STATIONS ARE NOT NWS STATIONS...THUS NOT UNDER NWS
QUALITY CONTROL.  THEY ALSO DO NOT REPORT WEATHER SUCH
AS PRECIPITATION OR FOG.

IAZ001>003-012>014-020>022-031>034-043>046-191600-
   NORTHWEST IOWA

CITY           SKY/WX    TMP DP  RH WIND       PRES   REMARKS
CARROLL *      SUNNY     75  66  73 NW8       29.82S
CHEROKEE *     SUNNY     72  68  88 NW3       29.83S
DENISON *      SUNNY     75  66  73 NW3       29.81S
LE MARS *      SUNNY     73  66  78 CALM      29.83S
ORANGE CITY *  SUNNY     73  64  73 W3        29.83S
SHELDON *      SUNNY     72  66  83 NW6       29.82R
SIOUX CITY     SUNNY     75  65  70 NW5       29.83S
SPENCER        SUNNY     73  64  73 NW7       29.82R
STORM LAKE *   SUNNY     72  70  94 W3        29.84R
$$

IAZ055>058-069>071-079>083-090>094-191600-
   SOUTHWEST IOWA

CITY           SKY/WX    TMP DP  RH WIND       PRES   REMARKS
ATLANTIC *     SUNNY     77  68  73 N3        29.81F
AUDUBON *      SUNNY     79  70  73 CALM      29.84S HX  81
CLARINDA *     SUNNY     79  68  69 CALM      29.84R HX  81
COUNCIL BLFS * SUNNY     77  70  78 N3        29.82S
CRESTON *      MOSUNNY   77  70  78 NW3       29.83S
HARLAN  *      SUNNY     75  68  78 NW5       29.86S
LAMONI         MOSUNNY   78  71  79 W6        29.80F HX  80
RED OAK *      SUNNY     79  70  73 VRB3      29.83R HX  81
SHENANDOAH *   SUNNY     79  72  78 CALM      29.83S HX  82
$$

IAZ047>049-059>061-072>074-084-191600-
   CENTRAL IOWA

CITY           SKY/WX    TMP DP  RH WIND       PRES   REMARKS
AMES           SUNNY     76  66  71 NW9       29.80R
ANKENY *       SUNNY     75  66  73 VRB5      29.79S
CHARITON *     SUNNY     77  70  78 NW7       29.80S
DES MOINES     MOSUNNY   78  66  66 W6        29.79S HX  80
GRINNELL*      SUNNY     75  66  73 W9        29.79S
KNOXVILLE *    SUNNY     77  68  73 NW10      29.77F
MARSHALLTOWN   SUNNY     74  66  76 W7        29.79R
PELLA *        MOSUNNY   77  70  78 NW7       29.79F
PERRY *          N/A     73  66  78 NW3       29.81S
$$

IAZ004>006-015-016-023>025-035-036-191600-
   NORTH CENTRAL IOWA

CITY           SKY/WX    TMP DP  RH WIND       PRES   REMARKS
ALGONA *       MOSUNNY   73  66  78 NW7       29.82R
CLARION *      MOSUNNY   72  68  88 W7        29.81R
ESTHERVILLE    SUNNY     72  65  78 NW6       29.81R
FORT DODGE *   SUNNY     73  66  78 NW5       29.83R
MASON CITY     MOSUNNY   72  65  78 W9        29.81R
FOREST CITY *  CLOUDY    70  68  94 W7        29.81R
IOWA FALLS *     N/A     73  66  78 W9        29.81R
$$

IAZ007>011-017>019-026>030-037>042-050>054-066-191600-
   NORTHEAST IOWA

CITY           SKY/WX    TMP DP  RH WIND       PRES   REMARKS
CEDAR RAPIDS   MOSUNNY   76  68  76 W10       29.76R
CHARLES CITY * MOSUNNY   72  66  83 NW9       29.78S
CLINTON *      MOSUNNY   75  70  83 W9        29.79R
DECORAH *      CLOUDY    68  64  88 NW8       29.76S
DUBUQUE        SUNNY     75  67  76 NW8       29.74S
MONTICELLO *   SUNNY     77  68  73 W12       29.74R
OELWEIN *      MOSUNNY   73  68  83 NW7       29.77R
WATERLOO       MOSUNNY   74  66  76 W10       29.76R
$$

IAZ064-065-067-068-078-191600-
   EAST CENTRAL IOWA

CITY           SKY/WX    TMP DP  RH WIND       PRES   REMARKS
DAVENPORT      MOSUNNY   76  69  79 SW10      29.78R
IOWA CITY      MOSUNNY   79  68  69 W9        29.77R HX  81
MT. PLEASANT * CLOUDY    73  70  88 S7        29.80R
MUSCATINE *    CLOUDY    77  72  83 S9        29.78R
QUAD CITIES    CLOUDY    76  70  82 SW13      29.77R
$$

IAZ062-063-075>077-085>089-095>099-191600-
   SOUTHEAST IOWA

CITY           SKY/WX    TMP DP  RH WIND       PRES   REMARKS
BURLINGTON     LGT RAIN  68  66  93 SW10      29.82R
FAIRFIELD *    SUNNY     75  72  88 VRB5      29.78S
FORT MADISON * CLOUDY    70  70 100 CALM      29.82F
KEOKUK *       LGT RAIN  70  66  88 CALM      29.78F
OSKALOOSA *      N/A     77  72  83 W6        29.79S
CENTERVILLE *  SUNNY     75  72  88 W7        29.81R
OTTUMWA        MOSUNNY   77  72  84 NW8       29.77F
WASHINGTON *   SUNNY     75  72  88 W8        29.78R
$$

ABBREVIATIONS USED IN REMARKS
   TC - TEMPERATURES IN CELSIUS
  WCI - WIND CHILL INDEX
   HX - HEAT INDEX
  VSB - VISIBILITY
$$



USA.gov is the U.S. government's official web portal to all federal, state and local government web resources and services.